sat.trackr.live / text

‹ back to catalog

STARLINK-32913

NORAD 63098 · 2025-037X

PAYLOAD ACTIVE UNKNOWN

§ Identity

Operator
Country
US
Launch date
2025-02-23
Launch site
AFWTR
Launch vehicle
Mass (kg)
RCS (m²)

Purposes: comms

External: N2YO · Heavens-Above · Gunter

§ Orbital elements

Epoch: 2026-09-20T05:51:24.589440Z

Period
94.14 min
Inclination
69.9999°
Eccentricity
0.0002650
Mean motion
15.29581861 rev/d
Perigee alt
475.2 km
Apogee alt
478.9 km
Semi-major
6,855.2 km
B*
4.2587e-4
RAAN
221.5454°
Arg perigee
266.4429°
Mean anomaly
93.6443°
Rev number
8,781

§ Raw data

STARLINK-329131 63098U 25037X   26263.24403460  .00012134  00000+0  42587-3 0  99942 63098  69.9999 221.5454 0002650 266.4429  93.6443 15.29581861 87817

JSON: /api/v1/satellites/63098 · /tle

For live sub-satellite position, see the globe view (requires WebGL).

§ Visibility from observer

Set your observer location to see the next 7 days of passes ≥ 10°. The values pass through the URL so the page stays shareable.

No JS? Fill the form by hand. The geolocation button needs JavaScript.